Voltar ao catálogo

NOAA 16 DEB

AtivoPO
NORAD 41267·DEBRIS·🇺🇸 United States

Lançado Sep 21, 2000 de Vandenberg Space Force Base

Loading…

Próximas Passagens (próximas 24 horas)

TLE

AtualizadoSource: Space-Track

Época: Sep 13, 2026, 10:00 UTC

1 41267U 00055FT  26256.41729845  .00062464  00000-0  32016-2 0  9997
2 41267  98.7934 111.2437 0011529 348.2318  11.8640 15.16262084564378

Acompanhe NOAA 16 DEB em tempo real com AllMySat

Download on the App Store